Showing default

WFOV (USA 332), 52940

Orbit data source: Space-Track

WFOV (USA 332), 52940 is a payload satellite owned by USSF SSC (US) in GEO that was launched on Fri, 01 Jul 2022 UTC via an ATLAS V 541 launch vehicle from the Air Force Eastern Test Range (AFETR). Payload-class satellites include a variety of spacecraft equipped with specific instruments for various scientific and technological missions. These include communications satellites like Starlink; space stations such as the ISS; scientific satellites like the Hubble; Earth observation satellites from companies like Planet Labs, Umbra, and HawkEye 360; GPS; miniature CubeSats for education and research; and military/defense satellites.

Not visible in the next 10 days
Identifier
52940, 2022-073A
Orbit
GEO
Country
Flag of USUS
Related business
Manufacturer
Millenium ES
Mission
Operational Defense Early Warn
Bus & Motor
AQUILA M8, Unknown motor
Mass
~3,000 kg wet, ~2,800 kg dry
Launch date (UTC)
2022-07-01 (4 years ago)
Launch vehicle
ATLAS V 541
Launch site
Air Force Eastern Test Range (AFETR)
Object type
Payload
Rocket body
Debris
Shape & HBR
Box + 2 Pan, 5.0 m
Radar Cross Section
14.304 m², Large (>1 m²)

Expand to show TLE details & history
Last TLE update: 2 days ago

TLE from 2 days ago
0 WFOV (USA 332)
1 52940U 22073A   26171.44607132 -.00000367  00000-0  00000+0 0  9994
2 52940   3.7203  78.4896 0002017 255.7442 214.2717  1.00273601 14401
Epoch: 2026-06-20T10:42Z
TLE epoch observation values (Epoch: 2026-06-20T10:42:20.562Z)
Latitude
3.49898°
Longitude
119.30201°
Altitude
35,792.195 km
Speed
3.074 km/s
True Right ascension
12h 34m 11s
True Declination
3° 29' 44"
Sunlit
Object was in daylight at epoch
Visualization orbit readout
Latitude
Unknown
Longitude
Unknown
Altitude
Unknown
Speed
Unknown
Apparent Right ascension
Unknown
Apparent Declination
Unknown
Sunlit
N/A
Visualization observer readout
Local Sidereal Time
21:40:59
Azimuth
Unknown
Elevation
Unknown
Doppler factor
Unknown
Orbital elements
Apogee altitude
35,795.654 km
Perigee altitude
35,778.645 km
Semi-major axis
42,165.287 km
Eccentricity
0.0002
Inclination
3.7203°
RAAN
78.4896°
Arg. of periapsis
255.7442°
True anomaly
214.25869°
Mean anomaly
214.2717°
Eccentric anomaly
214.26519°
Mean motion
0.25067 °/min
Orbital period
1,436.12 mins
BSTAR
0
Loading maneuver chart data...
Computing Atmospheric mass density...
Loading historical data...
Loading historical data...
Loading historical data...
Loading historical data...
Loading historical data...
Loading historical data...
Loading historical data...
Other satellites on launch #73 in the year 2022 (2022-07-01 UTC)

Documentation

Showing up to 5 results
|